Карточка аэропорта USRR

Внимание!
Информация на этой странице в стадии наполнения.
Если вы не увидели какой-то информации, или заметили неточность - пожалуйста сообщите нам!
Спасибо!
Команда RU-STAFF
Название аэропортаСургут
Название аэропорта (англ.)Surgut
Превышение196 ft. (59.7 m.)
Координаты61°20.502', 73°24.168'
Высота перехода700m
Эшелон переходаQFE>=742mm:FL040; QFE<=742mm:FL050
Коды ответчика5570-5577
Зона ОрВДТюмень РПИ (USTV)
Данные METARUSRR 201630Z 12005MPS 9999 SCT034CB M02/M08 Q1024 R07/CLRD60 NOSIG RMK QFE763
Проноз погоды (TAF)USRR 201350Z 2015/2115 11006G14MPS 6000 FEW005 BKN016CB TEMPO 2015/2021 1000 SHSN FZRA VV002 BECMG 2103/2106 30003G08MPS
NOTAMshow/hide NOTAM
AWOS   TABLE

Информация о ВПП

ВПП Длина ВПП (м.) Покрытие Курс ВПП Частота ILS
072780Асфальтобетон73110.5
252780Асфальтобетон253109.1

Диспетчерские позиции

Позывной Наименование органа УВД Частота
USRR_APPСургут-Подход129.300
USRR_R_APPСургут - Круг120.300
USRR_TWRСургут-Вышка120.800



Спутниковое изображение